Regional Weather Roundup
Issued by NWS Charleston, WV

Home | Current Version | Previous Version | Graphics & Text | Print | Product List | Glossary On
Versions: 1 2 3 4 5 6 7 8 9 10 11 12 13 14 15 16 17 18 19 20 21 22 23 24 25 26 27 28 29 30 31
000
ASUS41 KRLX 211810
RWRRLX
West Virginia Regional Weather Roundup
National Weather Service Charleston WV
200 PM EDT TUE OCT 21 2014

Note: "fair" indicates few or no clouds below 12,000 feet with no
significant weather and/or obstructions to visibility.

WVZ003-211900-
Northern Panhandle of West Virginia

CITY           SKY/WX    TMP DP  RH WIND       PRES   REMARKS
WHEELING       LGT RAIN  51  47  86 NW8       29.90S
$$

WVZ009-211900-
Northwest West Virginia

CITY           SKY/WX    TMP DP  RH WIND       PRES   REMARKS
PARKERSBURG    LGT RAIN  51  48  89 NW9       29.96S
$$

WVZ006-211900-
Western West Virginia

CITY           SKY/WX    TMP DP  RH WIND       PRES   REMARKS
HUNTINGTON     CLOUDY    53  41  63 NW8       29.99R
$$

WVZ015-211900-
West Central West Virginia

CITY           SKY/WX    TMP DP  RH WIND       PRES   REMARKS
CHARLESTON     LGT RAIN  51  47  86 W10       29.96R
$$

WVZ022-031-211900-
North Central West Virginia

CITY           SKY/WX    TMP DP  RH WIND       PRES   REMARKS
CLARKSBURG     LGT RAIN  52  50  93 W6        29.89F
MORGANTOWN     LGT RAIN  53  49  86 NW3       29.89S FOG
$$

WVZ025-035-042-045-211900-
Southern West Virginia

CITY           SKY/WX    TMP DP  RH WIND       PRES   REMARKS
BECKLEY        CLOUDY    51  41  68 W14G23    29.94S
LOGAN          CLOUDY    52  45  76 NW7G14    29.96R
BLUEFIELD      CLOUDY    54  40  59 W15G26    29.95F
LEWISBURG      PTSUNNY   54  45  71 W8        29.91S
$$

WVZ047-211900-
Northern Mountains of West Virginia

CITY           SKY/WX    TMP DP  RH WIND       PRES   REMARKS
ELKINS         LGT RAIN  51  48  89 VRB7      29.89S FOG
$$

WVZ052-211900-
Eastern Panhandle of West Virginia

CITY           SKY/WX    TMP DP  RH WIND       PRES   REMARKS
MARTINSBURG    PTSUNNY   63  47  55 NE5       29.83F
PETERSBURG     LGT RAIN N/A N/A N/A CALM      29.87S
$$



USA.gov is the U.S. government's official web portal to all federal, state and local government web resources and services.